TimeCDT,TemperatureF,Dew PointF,Humidity,Sea Level PressureIn,VisibilityMPH,Wind Direction,Wind SpeedMPH,Gust SpeedMPH,PrecipitationIn,Events,Conditions,WindDirDegrees,DateUTC
12:14 AM,59.0,37.4,45,29.72,10.0,East,11.5,-,N/A,,Clear,100,2012-10-04 05:14:00
12:33 AM,59.0,37.4,45,29.71,10.0,ESE,10.4,-,N/A,,Clear,110,2012-10-04 05:33:00
12:53 AM,57.2,37.4,48,29.70,10.0,ESE,8.1,-,N/A,,Clear,110,2012-10-04 05:53:00
1:14 AM,57.2,37.4,48,29.69,10.0,ESE,6.9,-,N/A,,Clear,110,2012-10-04 06:14:00
1:33 AM,57.2,37.4,48,29.69,10.0,SE,9.2,-,N/A,,Clear,140,2012-10-04 06:33:00
1:53 AM,60.8,33.8,36,29.68,10.0,South,16.1,20.7,N/A,,Clear,170,2012-10-04 06:53:00
2:14 AM,59.0,35.6,42,29.67,10.0,South,12.7,-,N/A,,Clear,170,2012-10-04 07:14:00
2:33 AM,55.4,35.6,47,29.67,10.0,South,13.8,-,N/A,,Clear,180,2012-10-04 07:33:00
2:53 AM,51.8,39.2,62,29.68,10.0,WSW,21.9,25.3,N/A,,Clear,240,2012-10-04 07:53:00
3:14 AM,46.4,42.8,87,29.69,10.0,WSW,24.2,28.8,N/A,,Clear,240,2012-10-04 08:14:00
3:33 AM,44.6,41.0,87,29.69,10.0,West,28.8,33.4,N/A,,Clear,260,2012-10-04 08:33:00
3:53 AM,44.6,41.0,87,29.72,10.0,WSW,33.4,40.3,N/A,,Mostly Cloudy,250,2012-10-04 08:53:00
4:14 AM,44.6,39.2,81,29.72,5.0,West,34.5,47.2,N/A,,Haze,270,2012-10-04 09:14:00
4:33 AM,44.6,39.2,81,29.74,7.0,West,32.2,40.3,N/A,,Overcast,270,2012-10-04 09:33:00
4:53 AM,42.8,39.2,87,29.77,10.0,West,29.9,38.0,N/A,,Overcast,270,2012-10-04 09:53:00
5:14 AM,42.8,39.2,87,29.78,7.0,West,34.5,42.6,N/A,,Overcast,270,2012-10-04 10:14:00
5:33 AM,41.0,39.2,93,29.79,5.0,West,31.1,42.6,N/A,,Overcast,280,2012-10-04 10:33:00
5:53 AM,39.2,37.4,93,29.81,5.0,West,27.6,40.3,N/A,,Light Drizzle,270,2012-10-04 10:53:00
6:13 AM,37.4,35.6,93,29.82,5.0,West,29.9,41.4,N/A,,Overcast,270,2012-10-04 11:13:00
6:33 AM,35.6,33.8,93,29.83,7.0,West,29.9,38.0,N/A,,Overcast,280,2012-10-04 11:33:00
6:54 AM,35.6,33.8,93,29.85,10.0,West,27.6,38.0,N/A,,Overcast,280,2012-10-04 11:54:00
7:13 AM,35.6,33.8,93,29.86,10.0,West,26.5,35.7,N/A,,Overcast,280,2012-10-04 12:13:00
7:39 AM,35.6,33.8,93,29.87,10.0,West,25.3,33.4,N/A,,Overcast,280,2012-10-04 12:39:00
7:54 AM,35.6,33.8,93,29.89,10.0,West,20.7,34.5,N/A,,Overcast,270,2012-10-04 12:54:00
8:13 AM,35.6,33.8,93,29.90,10.0,West,24.2,35.7,N/A,,Overcast,280,2012-10-04 13:13:00
8:33 AM,35.6,32.0,87,29.92,5.0,West,25.3,36.8,N/A,,Overcast,270,2012-10-04 13:33:00
8:54 AM,35.6,33.8,93,29.92,2.0,West,28.8,35.7,N/A,Rain,Light Rain,270,2012-10-04 13:54:00
9:13 AM,35.6,33.8,93,29.93,5.0,West,29.9,38.0,N/A,,Overcast,280,2012-10-04 14:13:00
9:34 AM,35.6,33.8,93,29.95,5.0,West,27.6,40.3,N/A,,Overcast,280,2012-10-04 14:34:00
9:53 AM,35.6,33.8,93,29.96,7.0,West,31.1,40.3,N/A,,Overcast,280,2012-10-04 14:53:00
10:13 AM,37.4,32.0,81,29.97,10.0,WNW,31.1,41.4,N/A,,Overcast,290,2012-10-04 15:13:00
10:34 AM,37.4,32.0,81,29.98,10.0,WNW,33.4,39.1,N/A,,Overcast,290,2012-10-04 15:34:00
10:53 AM,39.2,32.0,75,29.99,10.0,West,29.9,40.3,N/A,,Overcast,280,2012-10-04 15:53:00
11:34 AM,39.2,32.0,75,30.01,10.0,West,29.9,41.4,N/A,,Overcast,280,2012-10-04 16:34:00
11:53 AM,39.2,32.0,75,30.02,7.0,West,32.2,41.4,N/A,,Overcast,280,2012-10-04 16:53:00
12:13 PM,39.2,33.8,81,30.03,5.0,West,28.8,38.0,N/A,,Haze,280,2012-10-04 17:13:00
12:34 PM,41.0,33.8,76,30.04,10.0,WNW,29.9,42.6,N/A,,Overcast,290,2012-10-04 17:34:00
12:53 PM,39.2,33.8,81,30.05,7.0,West,23.0,38.0,N/A,,Overcast,280,2012-10-04 17:53:00
1:13 PM,39.2,32.0,75,30.06,10.0,WNW,32.2,42.6,N/A,,Overcast,290,2012-10-04 18:13:00
1:34 PM,41.0,30.2,65,30.07,10.0,West,27.6,43.7,N/A,,Overcast,280,2012-10-04 18:34:00
1:53 PM,41.0,30.2,65,30.06,10.0,West,32.2,39.1,N/A,,Overcast,280,2012-10-04 18:53:00
2:13 PM,41.0,32.0,70,30.06,10.0,West,32.2,39.1,N/A,,Overcast,280,2012-10-04 19:13:00
2:34 PM,42.8,30.2,61,30.08,10.0,West,32.2,42.6,N/A,,Overcast,280,2012-10-04 19:34:00
2:53 PM,42.8,30.2,61,30.08,10.0,West,32.2,40.3,N/A,,Overcast,280,2012-10-04 19:53:00
3:13 PM,41.0,30.2,65,30.09,10.0,West,24.2,38.0,N/A,,Overcast,280,2012-10-04 20:13:00
3:34 PM,42.8,30.2,61,30.10,10.0,WNW,26.5,36.8,N/A,,Overcast,290,2012-10-04 20:34:00
3:53 PM,42.8,30.2,61,30.10,10.0,West,27.6,40.3,N/A,,Overcast,280,2012-10-04 20:53:00
4:13 PM,42.8,30.2,61,30.10,10.0,WNW,25.3,36.8,N/A,,Overcast,290,2012-10-04 21:13:00
4:34 PM,42.8,30.2,61,30.10,10.0,WNW,33.4,41.4,N/A,,Overcast,290,2012-10-04 21:34:00
4:53 PM,42.8,28.4,57,30.11,10.0,WNW,35.7,46.0,N/A,,Overcast,290,2012-10-04 21:53:00
5:13 PM,42.8,30.2,61,30.12,10.0,WNW,26.5,34.5,N/A,,Overcast,290,2012-10-04 22:13:00
5:34 PM,41.0,30.2,65,30.12,10.0,WNW,29.9,34.5,N/A,,Overcast,290,2012-10-04 22:34:00
5:53 PM,41.0,30.2,65,30.13,10.0,WNW,26.5,33.4,N/A,,Overcast,290,2012-10-04 22:53:00
6:13 PM,41.0,30.2,65,30.13,10.0,WNW,26.5,32.2,N/A,,Overcast,300,2012-10-04 23:13:00
6:34 PM,41.0,30.2,65,30.13,10.0,WNW,24.2,34.5,N/A,,Overcast,300,2012-10-04 23:34:00
6:53 PM,41.0,30.2,65,30.13,10.0,WNW,26.5,32.2,N/A,,Overcast,290,2012-10-04 23:53:00
7:13 PM,39.2,30.2,70,30.14,10.0,West,18.4,31.1,N/A,,Scattered Clouds,280,2012-10-05 00:13:00
7:34 PM,39.2,30.2,70,30.14,10.0,WNW,25.3,34.5,N/A,,Mostly Cloudy,290,2012-10-05 00:34:00
8:14 PM,39.2,32.0,75,30.14,10.0,West,19.6,31.1,N/A,,Scattered Clouds,280,2012-10-05 01:14:00
8:33 PM,39.2,32.0,75,30.14,10.0,WNW,20.7,29.9,N/A,,Scattered Clouds,290,2012-10-05 01:33:00
8:53 PM,39.2,32.0,75,30.15,10.0,WNW,23.0,31.1,N/A,,Scattered Clouds,290,2012-10-05 01:53:00
9:14 PM,39.2,30.2,70,30.15,10.0,WNW,26.5,35.7,N/A,,Scattered Clouds,290,2012-10-05 02:14:00
9:33 PM,39.2,32.0,75,30.16,10.0,West,20.7,27.6,N/A,,Mostly Cloudy,280,2012-10-05 02:33:00
9:53 PM,39.2,30.2,70,30.16,10.0,West,18.4,31.1,N/A,,Mostly Cloudy,280,2012-10-05 02:53:00
10:14 PM,39.2,30.2,70,30.16,10.0,West,20.7,28.8,N/A,,Mostly Cloudy,280,2012-10-05 03:14:00
10:33 PM,39.2,30.2,70,30.16,10.0,WNW,19.6,33.4,N/A,,Overcast,290,2012-10-05 03:33:00
10:53 PM,39.2,30.2,70,30.16,10.0,WNW,24.2,32.2,N/A,,Overcast,300,2012-10-05 03:53:00
11:14 PM,39.2,28.4,65,30.16,10.0,WNW,21.9,31.1,N/A,,Overcast,300,2012-10-05 04:14:00
11:33 PM,39.2,28.4,65,30.16,10.0,WNW,26.5,33.4,N/A,,Overcast,300,2012-10-05 04:33:00
11:53 PM,37.4,28.4,70,30.16,10.0,WNW,21.9,33.4,N/A,,Overcast,300,2012-10-05 04:53:00